| time (UTC) | temp C | wind direction | speed KPH | gust KPH | rain 1hr cm | rain 24hr cm | rain mn cm | humidity % | barometer mb |
| 20260510142405 | 24 | 320 | 1.6 | 4.8 | 0.00 | 0.00 | 0.00 | 76 | 1016.4 |
| 20260510141905 | 24 | 330 | 3.2 | 4.8 | 0.00 | 0.00 | 0.00 | 76 | 1016.3 |
| 20260510141405 | 24 | 274 | 4.8 | 8.0 | 0.00 | 0.00 | 0.00 | 77 | 1016.3 |
| 20260510140905 | 23 | 16 | 0.0 | 8.0 | 0.00 | 0.00 | 0.00 | 77 | 1016.2 |
| 20260510140405 | 23 | 244 | 0.0 | 3.2 | 0.00 | 0.00 | 0.00 | 78 | 1016.0 |
| 20260510135904 | 23 | 347 | 1.6 | 3.2 | 0.00 | 0.00 | 0.00 | 79 | 1016.1 |
| 20260510134905 | 22 | 355 | 0.0 | 0.0 | 0.00 | 0.00 | 0.00 | 80 | 1015.9 |
| 20260510133405 | 22 | 30 | 1.6 | 8.0 | 0.00 | 0.00 | 0.00 | 82 | 1016.1 |
| 20260510132405 | 22 | 284 | 0.0 | 1.6 | 0.00 | 0.00 | 0.00 | 84 | 1016.0 |
| 20260510131405 | 21 | 277 | 0.0 | 0.0 | 0.00 | 0.00 | 0.00 | 86 | 1015.9 |
| 20260510130404 | 20 | 170 | 0.0 | 0.0 | 0.00 | 0.00 | 0.00 | 87 | 1015.9 |
| 20260510125904 | 20 | 170 | 0.0 | 0.0 | 0.00 | 0.00 | 0.00 | 87 | 1015.8 |
| 20260510125405 | 20 | 170 | 0.0 | 0.0 | 0.00 | 0.00 | 0.00 | 88 | 1015.9 |
| 20260510124904 | 19 | 170 | 0.0 | 0.0 | 0.00 | 0.00 | 0.00 | 88 | 1015.9 |
| 20260510124404 | 19 | 170 | 0.0 | 0.0 | 0.00 | 0.00 | 0.00 | 89 | 1015.9 |
| 20260510123904 | 19 | 170 | 0.0 | 0.0 | 0.00 | 0.00 | 0.00 | 89 | 1015.8 |
| 20260510123404 | 18 | 170 | 0.0 | 0.0 | 0.00 | 0.00 | 0.00 | 89 | 1015.9 |
| 20260510122904 | 18 | 170 | 0.0 | 0.0 | 0.00 | 0.00 | 0.00 | 89 | 1015.8 |
| 20260510122404 | 18 | 170 | 0.0 | 0.0 | 0.00 | 0.00 | 0.00 | 89 | 1015.7 |
| 20260510121904 | 18 | 170 | 0.0 | 0.0 | 0.00 | 0.00 | 0.00 | 90 | 1015.7 |
| 20260510121404 | 17 | 170 | 0.0 | 0.0 | 0.00 | 0.00 | 0.00 | 91 | 1015.6 |
| 20260510120904 | 17 | 170 | 0.0 | 0.0 | 0.00 | 0.00 | 0.00 | 92 | 1015.5 |
| 20260510120404 | 17 | 170 | 0.0 | 0.0 | 0.00 | 0.00 | 0.00 | 92 | 1015.5 |
| 20260510115904 | 16 | 170 | 0.0 | 0.0 | 0.00 | 0.00 | 0.00 | 92 | 1015.5 |
| 20260510115404 | 16 | 170 | 0.0 | 0.0 | 0.00 | 0.00 | 0.00 | 92 | 1015.7 |
| 20260510114905 | 16 | 170 | 0.0 | 0.0 | 0.00 | 0.00 | 0.00 | 93 | 1015.6 |
| 20260510114404 | 15 | 170 | 0.0 | 0.0 | 0.00 | 0.00 | 0.00 | 93 | 1015.6 |
| 20260510113904 | 15 | 170 | 0.0 | 0.0 | 0.00 | 0.00 | 0.00 | 92 | 1015.6 |
| 20260510113404 | 15 | 170 | 0.0 | 0.0 | 0.00 | 0.00 | 0.00 | 92 | 1015.7 |
| 20260510112904 | 15 | 170 | 0.0 | 0.0 | 0.00 | 0.00 | 0.00 | 92 | 1015.5 |
| 20260510112404 | 15 | 170 | 0.0 | 0.0 | 0.00 | 0.00 | 0.00 | 92 | 1015.3 |
| 20260510111404 | 15 | 190 | 0.0 | 0.0 | 0.00 | 0.00 | 0.00 | 92 | 1015.0 |
| 20260510110904 | 15 | 190 | 0.0 | 0.0 | 0.00 | 0.00 | 0.00 | 92 | 1014.9 |
| 20260510105904 | 15 | 190 | 0.0 | 0.0 | 0.00 | 0.00 | 0.00 | 92 | 1014.9 |
| 20260510104904 | 15 | 190 | 0.0 | 0.0 | 0.00 | 0.00 | 0.00 | 92 | 1014.8 |
| 20260510104404 | 15 | 190 | 0.0 | 0.0 | 0.00 | 0.00 | 0.00 | 92 | 1014.6 |
| 20260510103904 | 14 | 190 | 0.0 | 0.0 | 0.00 | 0.00 | 0.00 | 92 | 1014.7 |
| 20260510103403 | 15 | 190 | 0.0 | 0.0 | 0.00 | 0.00 | 0.00 | 92 | 1014.6 |
| 20260510102903 | 14 | 190 | 0.0 | 0.0 | 0.00 | 0.00 | 0.00 | 92 | 1014.5 |
| 20260510102403 | 14 | 190 | 0.0 | 0.0 | 0.00 | 0.00 | 0.00 | 92 | 1014.5 |
| 20260510101903 | 14 | 190 | 0.0 | 0.0 | 0.00 | 0.00 | 0.00 | 92 | 1014.4 |
| 20260510100903 | 14 | 190 | 0.0 | 0.0 | 0.00 | 0.00 | 0.00 | 91 | 1014.3 |
| 20260510100403 | 14 | 190 | 0.0 | 0.0 | 0.00 | 0.00 | 0.00 | 91 | 1014.3 |
| 20260510095403 | 15 | 190 | 0.0 | 0.0 | 0.00 | 0.00 | 0.00 | 90 | 1014.2 |
| 20260510094903 | 15 | 190 | 0.0 | 0.0 | 0.00 | 0.00 | 0.00 | 90 | 1014.2 |
| 20260510093903 | 15 | 190 | 0.0 | 0.0 | 0.00 | 0.00 | 0.00 | 90 | 1014.1 |
| 20260510093403 | 15 | 190 | 0.0 | 0.0 | 0.00 | 0.00 | 0.00 | 90 | 1014.0 |
| 20260510092903 | 15 | 190 | 0.0 | 0.0 | 0.00 | 0.00 | 0.00 | 89 | 1013.9 |
| 20260510091903 | 15 | 190 | 0.0 | 0.0 | 0.00 | 0.00 | 0.00 | 89 | 1013.8 |
| 20260510090903 | 15 | 190 | 0.0 | 0.0 | 0.00 | 0.00 | 0.00 | 88 | 1013.5 |
| 20260510085403 | 15 | 190 | 0.0 | 0.0 | 0.00 | 0.00 | 0.00 | 88 | 1013.3 |
| 20260510084903 | 15 | 190 | 0.0 | 0.0 | 0.00 | 0.00 | 0.00 | 87 | 1013.2 |
| 20260510084402 | 15 | 190 | 0.0 | 0.0 | 0.00 | 0.00 | 0.00 | 87 | 1013.3 |
| 20260510083903 | 15 | 190 | 0.0 | 0.0 | 0.00 | 0.00 | 0.00 | 87 | 1013.3 |
| 20260510082902 | 15 | 190 | 0.0 | 0.0 | 0.00 | 0.00 | 0.00 | 87 | 1013.4 |
| 20260510081903 | 15 | 190 | 0.0 | 0.0 | 0.00 | 0.00 | 0.00 | 86 | 1013.4 |
| 20260510081402 | 15 | 190 | 0.0 | 0.0 | 0.00 | 0.00 | 0.00 | 86 | 1013.2 |
| 20260510080902 | 15 | 190 | 0.0 | 0.0 | 0.00 | 0.00 | 0.00 | 85 | 1013.3 |
| 20260510080402 | 15 | 190 | 0.0 | 0.0 | 0.00 | 0.00 | 0.00 | 84 | 1013.2 |
| 20260510075902 | 15 | 190 | 0.0 | 0.0 | 0.00 | 0.00 | 0.00 | 85 | 1013.2 |
| 20260510075402 | 15 | 190 | 0.0 | 0.0 | 0.00 | 0.00 | 0.00 | 84 | 1013.2 |
| 20260510074902 | 15 | 190 | 0.0 | 0.0 | 0.00 | 0.00 | 0.00 | 84 | 1013.2 |
| 20260510073902 | 15 | 190 | 0.0 | 0.0 | 0.00 | 0.00 | 0.00 | 84 | 1013.2 |
| 20260510073402 | 15 | 190 | 0.0 | 0.0 | 0.00 | 0.00 | 0.00 | 83 | 1013.2 |
| 20260510072902 | 15 | 190 | 0.0 | 0.0 | 0.00 | 0.00 | 0.00 | 83 | 1013.2 |
| 20260510072402 | 15 | 190 | 0.0 | 0.0 | 0.00 | 0.00 | 0.00 | 83 | 1013.3 |
| 20260510071902 | 15 | 190 | 0.0 | 0.0 | 0.00 | 0.00 | 0.00 | 83 | 1013.2 |
| 20260510071402 | 15 | 190 | 0.0 | 0.0 | 0.00 | 0.00 | 0.00 | 83 | 1013.2 |
| 20260510070902 | 15 | 190 | 0.0 | 0.0 | 0.00 | 0.00 | 0.00 | 82 | 1013.1 |
| 20260510065901 | 15 | 190 | 0.0 | 0.0 | 0.00 | 0.00 | 0.00 | 82 | 1013.2 |
| 20260510065402 | 15 | 190 | 0.0 | 0.0 | 0.00 | 0.00 | 0.00 | 82 | 1013.3 |
| 20260510064402 | 15 | 190 | 0.0 | 0.0 | 0.00 | 0.00 | 0.00 | 83 | 1013.4 |
| 20260510063402 | 15 | 190 | 0.0 | 0.0 | 0.00 | 0.00 | 0.00 | 82 | 1013.2 |
| 20260510062902 | 15 | 190 | 0.0 | 0.0 | 0.00 | 0.00 | 0.00 | 83 | 1013.1 |
| 20260510062402 | 15 | 190 | 0.0 | 0.0 | 0.00 | 0.00 | 0.00 | 82 | 1012.9 |
| 20260510061901 | 15 | 190 | 0.0 | 0.0 | 0.00 | 0.00 | 0.00 | 82 | 1012.8 |
| 20260510061402 | 15 | 190 | 0.0 | 0.0 | 0.00 | 0.00 | 0.00 | 82 | 1012.9 |
| 20260510060901 | 15 | 190 | 0.0 | 0.0 | 0.00 | 0.00 | 0.00 | 82 | 1012.8 |
| 20260510060402 | 15 | 190 | 0.0 | 0.0 | 0.00 | 0.00 | 0.00 | 82 | 1012.7 |
| 20260510055402 | 15 | 190 | 0.0 | 0.0 | 0.00 | 0.00 | 0.00 | 81 | 1012.7 |
| 20260510054902 | 15 | 190 | 0.0 | 0.0 | 0.00 | 0.00 | 0.00 | 80 | 1012.7 |
| 20260510054401 | 15 | 190 | 0.0 | 0.0 | 0.00 | 0.00 | 0.00 | 81 | 1012.8 |
| 20260510053901 | 15 | 190 | 0.0 | 0.0 | 0.00 | 0.00 | 0.00 | 81 | 1012.7 |
| 20260510053401 | 15 | 190 | 0.0 | 0.0 | 0.00 | 0.00 | 0.00 | 80 | 1012.7 |
| 20260510052902 | 15 | 190 | 0.0 | 0.0 | 0.00 | 0.00 | 0.00 | 79 | 1012.7 |
| 20260510052401 | 15 | 190 | 0.0 | 0.0 | 0.00 | 0.00 | 0.00 | 81 | 1012.7 |
| 20260510051901 | 15 | 190 | 0.0 | 0.0 | 0.00 | 0.00 | 0.00 | 81 | 1012.7 |
| 20260510051402 | 15 | 190 | 0.0 | 0.0 | 0.00 | 0.00 | 0.00 | 79 | 1012.7 |
| 20260510050902 | 15 | 190 | 0.0 | 0.0 | 0.00 | 0.00 | 0.00 | 79 | 1012.7 |
| 20260510050401 | 16 | 190 | 0.0 | 0.0 | 0.00 | 0.00 | 0.00 | 78 | 1012.7 |
| 20260510045901 | 16 | 190 | 0.0 | 0.0 | 0.00 | 0.00 | 0.00 | 78 | 1012.6 |
| 20260510045401 | 16 | 190 | 0.0 | 0.0 | 0.00 | 0.00 | 0.00 | 77 | 1012.6 |
| 20260510044901 | 16 | 190 | 0.0 | 0.0 | 0.00 | 0.00 | 0.00 | 77 | 1012.6 |
| 20260510044402 | 16 | 190 | 0.0 | 0.0 | 0.00 | 0.00 | 0.00 | 77 | 1012.6 |
| 20260510043901 | 16 | 190 | 0.0 | 0.0 | 0.00 | 0.00 | 0.00 | 77 | 1012.6 |
| 20260510041902 | 16 | 190 | 0.0 | 0.0 | 0.00 | 0.00 | 0.00 | 77 | 1012.7 |
| 20260510041401 | 16 | 190 | 0.0 | 0.0 | 0.00 | 0.00 | 0.00 | 77 | 1012.7 |
| 20260510040902 | 16 | 190 | 0.0 | 0.0 | 0.00 | 0.00 | 0.00 | 77 | 1012.7 |
| 20260510035901 | 16 | 190 | 0.0 | 0.0 | 0.00 | 0.00 | 0.00 | 76 | 1012.8 |
| 20260510035402 | 16 | 190 | 0.0 | 0.0 | 0.00 | 0.00 | 0.00 | 76 | 1012.7 |
| 20260510034901 | 16 | 190 | 0.0 | 0.0 | 0.00 | 0.00 | 0.00 | 76 | 1012.7 |
| 20260510034402 | 16 | 190 | 0.0 | 0.0 | 0.00 | 0.00 | 0.00 | 76 | 1012.8 |
| 20260510033901 | 16 | 190 | 0.0 | 0.0 | 0.00 | 0.00 | 0.00 | 76 | 1012.8 |
| 20260510033401 | 16 | 190 | 0.0 | 0.0 | 0.00 | 0.00 | 0.00 | 75 | 1012.7 |
| 20260510032901 | 17 | 190 | 0.0 | 1.6 | 0.00 | 0.00 | 0.00 | 75 | 1012.7 |
| 20260510032401 | 17 | 190 | 0.0 | 1.6 | 0.00 | 0.00 | 0.00 | 75 | 1012.9 |
| 20260510031901 | 17 | 190 | 0.0 | 4.8 | 0.00 | 0.00 | 0.00 | 74 | 1012.8 |
| 20260510031402 | 17 | 190 | 0.0 | 4.8 | 0.00 | 0.00 | 0.00 | 74 | 1012.8 |
| 20260510030401 | 17 | 79 | 0.0 | 0.0 | 0.00 | 0.00 | 0.00 | 74 | 1012.8 |
| 20260510025901 | 17 | 79 | 0.0 | 0.0 | 0.00 | 0.00 | 0.00 | 73 | 1012.7 |
| 20260510024901 | 17 | 79 | 0.0 | 0.0 | 0.00 | 0.00 | 0.00 | 72 | 1012.8 |
| 20260510024401 | 17 | 79 | 0.0 | 0.0 | 0.00 | 0.00 | 0.00 | 71 | 1012.7 |
| 20260510023401 | 18 | 79 | 0.0 | 0.0 | 0.00 | 0.00 | 0.00 | 70 | 1012.7 |
| 20260510022901 | 18 | 79 | 0.0 | 0.0 | 0.00 | 0.00 | 0.00 | 70 | 1012.6 |
| 20260510022401 | 18 | 79 | 0.0 | 0.0 | 0.00 | 0.00 | 0.00 | 71 | 1012.5 |
| 20260510021401 | 18 | 79 | 0.0 | 0.0 | 0.00 | 0.00 | 0.00 | 71 | 1012.4 |
| 20260510020900 | 18 | 79 | 0.0 | 0.0 | 0.00 | 0.00 | 0.00 | 70 | 1012.2 |
| 20260510020400 | 18 | 79 | 0.0 | 0.0 | 0.00 | 0.00 | 0.00 | 69 | 1012.1 |
| 20260510015900 | 18 | 79 | 0.0 | 0.0 | 0.00 | 0.00 | 0.00 | 67 | 1012.1 |
| 20260510014901 | 19 | 79 | 0.0 | 0.0 | 0.00 | 0.00 | 0.00 | 68 | 1012.0 |
| 20260510014400 | 19 | 79 | 0.0 | 0.0 | 0.00 | 0.00 | 0.00 | 66 | 1011.8 |
| 20260510013401 | 19 | 79 | 0.0 | 0.0 | 0.00 | 0.00 | 0.00 | 64 | 1011.5 |
| 20260510012900 | 20 | 79 | 0.0 | 0.0 | 0.00 | 0.00 | 0.00 | 65 | 1011.6 |
| 20260510012400 | 20 | 79 | 0.0 | 0.0 | 0.00 | 0.00 | 0.00 | 68 | 1011.4 |
| 20260510011900 | 20 | 79 | 0.0 | 0.0 | 0.00 | 0.00 | 0.00 | 67 | 1011.4 |
| 20260510010900 | 20 | 79 | 0.0 | 0.0 | 0.00 | 0.00 | 0.00 | 62 | 1011.3 |
| 20260510010400 | 20 | 79 | 0.0 | 0.0 | 0.00 | 0.00 | 0.00 | 62 | 1011.2 |
| 20260510005900 | 21 | 79 | 0.0 | 0.0 | 0.00 | 0.00 | 0.00 | 60 | 1011.2 |
| 20260510004900 | 21 | 79 | 0.0 | 0.0 | 0.00 | 0.00 | 0.00 | 58 | 1011.1 |
| 20260510004400 | 21 | 79 | 0.0 | 0.0 | 0.00 | 0.00 | 0.00 | 57 | 1011.0 |
| 20260510003900 | 22 | 79 | 0.0 | 0.0 | 0.00 | 0.00 | 0.00 | 56 | 1011.0 |
| 20260510002900 | 22 | 79 | 0.0 | 0.0 | 0.00 | 0.00 | 0.00 | 57 | 1010.8 |
| 20260510002400 | 22 | 79 | 0.0 | 0.0 | 0.00 | 0.00 | 0.00 | 58 | 1010.7 |
| 20260510001900 | 22 | 79 | 0.0 | 0.0 | 0.00 | 0.00 | 0.00 | 56 | 1010.7 |
| 20260510001400 | 23 | 79 | 0.0 | 0.0 | 0.00 | 0.00 | 0.00 | 57 | 1010.5 |
| 20260510000859 | 23 | 79 | 0.0 | 0.0 | 0.00 | 0.00 | 0.00 | 53 | 1010.5 |
| 20260510000359 | 23 | 79 | 0.0 | 0.0 | 0.00 | 0.00 | 0.00 | 54 | 1010.4 |
| 20260509235900 | 23 | 79 | 0.0 | 0.0 | 0.00 | 0.00 | 0.00 | 51 | 1010.3 |
| 20260509235359 | 24 | 79 | 0.0 | 0.0 | 0.00 | 0.00 | 0.00 | 52 | 1010.3 |
| 20260509234859 | 25 | 79 | 0.0 | 0.0 | 0.00 | 0.00 | 0.00 | 51 | 1010.3 |
| 20260509234359 | 25 | 79 | 0.0 | 0.0 | 0.00 | 0.00 | 0.00 | 49 | 1010.3 |
| 20260509233900 | 25 | 79 | 0.0 | 0.0 | 0.00 | 0.00 | 0.00 | 48 | 1010.2 |
| 20260509233400 | 25 | 79 | 0.0 | 0.0 | 0.00 | 0.00 | 0.00 | 49 | 1010.2 |
| 20260509231859 | 26 | 79 | 0.0 | 3.2 | 0.00 | 0.00 | 0.00 | 38 | 1010.1 |
| 20260509231359 | 26 | 79 | 0.0 | 4.8 | 0.00 | 0.00 | 0.00 | 41 | 1010.1 |
| 20260509230859 | 26 | 76 | 1.6 | 8.0 | 0.00 | 0.00 | 0.00 | 41 | 1010.1 |
| 20260509230359 | 26 | 86 | 3.2 | 8.0 | 0.00 | 0.00 | 0.00 | 38 | 1010.0 |
| 20260509225859 | 27 | 92 | 0.0 | 4.8 | 0.00 | 0.00 | 0.00 | 37 | 1010.0 |
| 20260509225359 | 27 | 75 | 0.0 | 3.2 | 0.00 | 0.00 | 0.00 | 41 | 1009.9 |
| 20260509224859 | 27 | 75 | 0.0 | 6.4 | 0.00 | 0.00 | 0.00 | 34 | 1009.8 |
| 20260509224359 | 27 | 90 | 3.2 | 6.4 | 0.00 | 0.00 | 0.00 | 40 | 1009.9 |
| 20260509223859 | 27 | 109 | 4.8 | 11.3 | 0.00 | 0.00 | 0.00 | 37 | 1009.9 |
| 20260509223359 | 27 | 55 | 1.6 | 11.3 | 0.00 | 0.00 | 0.00 | 37 | 1009.9 |
| 20260509222359 | 27 | 107 | 1.6 | 9.7 | 0.00 | 0.00 | 0.00 | 39 | 1009.9 |
| 20260509221859 | 28 | 117 | 3.2 | 9.7 | 0.00 | 0.00 | 0.00 | 37 | 1010.0 |
| 20260509221359 | 27 | 34 | 3.2 | 4.8 | 0.00 | 0.00 | 0.00 | 36 | 1010.0 |
| 20260509220859 | 27 | 38 | 0.0 | 4.8 | 0.00 | 0.00 | 0.00 | 33 | 1010.1 |
| 20260509220359 | 27 | 215 | 0.0 | 3.2 | 0.00 | 0.00 | 0.00 | 36 | 1010.0 |
| 20260509215859 | 28 | 284 | 0.0 | 3.2 | 0.00 | 0.00 | 0.00 | 33 | 1010.0 |
| 20260509215359 | 27 | 355 | 0.0 | 6.4 | 0.00 | 0.00 | 0.00 | 33 | 1010.0 |
| 20260509213358 | 28 | 18 | 3.2 | 6.4 | 0.00 | 0.00 | 0.00 | 31 | 1010.1 |
| 20260509212859 | 28 | 336 | 1.6 | 8.0 | 0.00 | 0.00 | 0.00 | 33 | 1010.1 |
| 20260509212358 | 28 | 345 | 1.6 | 8.0 | 0.00 | 0.00 | 0.00 | 34 | 1010.2 |
| 20260509211858 | 28 | 20 | 6.4 | 6.4 | 0.00 | 0.00 | 0.00 | 33 | 1010.2 |
| 20260509211358 | 28 | 298 | 0.0 | 12.9 | 0.00 | 0.00 | 0.00 | 32 | 1010.3 |
| 20260509210858 | 28 | 360 | 3.2 | 12.9 | 0.00 | 0.00 | 0.00 | 32 | 1010.3 |
| 20260509210359 | 28 | 103 | 4.8 | 9.7 | 0.00 | 0.00 | 0.00 | 31 | 1010.3 |
| 20260509205358 | 28 | 344 | 3.2 | 8.0 | 0.00 | 0.00 | 0.00 | 31 | 1010.2 |
| 20260509204858 | 28 | 347 | 3.2 | 8.0 | 0.00 | 0.00 | 0.00 | 33 | 1010.3 |
| 20260509204358 | 28 | 5 | 3.2 | 6.4 | 0.00 | 0.00 | 0.00 | 31 | 1010.2 |
| 20260509203859 | 28 | 355 | 0.0 | 11.3 | 0.00 | 0.00 | 0.00 | 29 | 1010.3 |
| 20260509203358 | 28 | 350 | 0.0 | 11.3 | 0.00 | 0.00 | 0.00 | 28 | 1010.3 |
| 20260509202858 | 28 | 130 | 1.6 | 6.4 | 0.00 | 0.00 | 0.00 | 33 | 1010.3 |
| 20260509202358 | 28 | 340 | 0.0 | 6.4 | 0.00 | 0.00 | 0.00 | 35 | 1010.4 |
| 20260509201358 | 28 | 45 | 3.2 | 11.3 | 0.00 | 0.00 | 0.00 | 32 | 1010.5 |
| 20260509200358 | 28 | 360 | 3.2 | 8.0 | 0.00 | 0.00 | 0.00 | 35 | 1010.5 |
| 20260509195358 | 28 | 212 | 4.8 | 12.9 | 0.00 | 0.00 | 0.00 | 39 | 1010.6 |
| 20260509194858 | 27 | 189 | 8.0 | 14.5 | 0.00 | 0.00 | 0.00 | 38 | 1010.7 |
| 20260509194358 | 27 | 109 | 0.0 | 14.5 | 0.00 | 0.00 | 0.00 | 37 | 1010.8 |
| 20260509193858 | 27 | 53 | 1.6 | 11.3 | 0.00 | 0.00 | 0.00 | 40 | 1010.7 |
| 20260509193358 | 27 | 69 | 1.6 | 9.7 | 0.00 | 0.00 | 0.00 | 40 | 1010.7 |
| 20260509192357 | 28 | 273 | 3.2 | 6.4 | 0.00 | 0.00 | 0.00 | 40 | 1010.7 |
| 20260509191857 | 27 | 5 | 0.0 | 6.4 | 0.00 | 0.00 | 0.00 | 39 | 1010.8 |
| 20260509191358 | 27 | 80 | 0.0 | 9.7 | 0.00 | 0.00 | 0.00 | 37 | 1010.8 |
| 20260509190857 | 29 | 288 | 3.2 | 9.7 | 0.00 | 0.00 | 0.00 | 41 | 1010.9 |
| 20260509185858 | 26 | 103 | 0.0 | 9.7 | 0.00 | 0.00 | 0.00 | 40 | 1010.8 |
| 20260509185358 | 26 | 149 | 4.8 | 14.5 | 0.00 | 0.00 | 0.00 | 41 | 1010.8 |
| 20260509184858 | 27 | 5 | 1.6 | 14.5 | 0.00 | 0.00 | 0.00 | 39 | 1010.8 |
| 20260509184357 | 27 | 18 | 6.4 | 8.0 | 0.00 | 0.00 | 0.00 | 41 | 1011.0 |
| 20260509183357 | 27 | 277 | 3.2 | 6.4 | 0.00 | 0.00 | 0.00 | 47 | 1011.2 |
| 20260509182857 | 26 | 96 | 0.0 | 4.8 | 0.00 | 0.00 | 0.00 | 45 | 1011.1 |
| 20260509181857 | 26 | 117 | 1.6 | 14.5 | 0.00 | 0.00 | 0.00 | 46 | 1011.3 |
| 20260509181357 | 26 | 336 | 1.6 | 14.5 | 0.00 | 0.00 | 0.00 | 43 | 1011.3 |
| 20260509180358 | 27 | 238 | 0.0 | 8.0 | 0.00 | 0.00 | 0.00 | 46 | 1011.5 |
| 20260509175857 | 26 | 134 | 4.8 | 8.0 | 0.00 | 0.00 | 0.00 | 49 | 1011.4 |
| 20260509175357 | 27 | 346 | 3.2 | 11.3 | 0.00 | 0.00 | 0.00 | 49 | 1011.5 |
| 20260509174857 | 27 | 212 | 3.2 | 11.3 | 0.00 | 0.00 | 0.00 | 50 | 1011.5 |
| 20260509174357 | 26 | 263 | 4.8 | 11.3 | 0.00 | 0.00 | 0.00 | 55 | 1011.5 |
| 20260509173857 | 26 | 103 | 3.2 | 9.7 | 0.00 | 0.00 | 0.00 | 49 | 1011.4 |
| 20260509173357 | 26 | 35 | 8.0 | 9.7 | 0.00 | 0.00 | 0.00 | 50 | 1011.4 |
| 20260509172857 | 26 | 355 | 0.0 | 6.4 | 0.00 | 0.00 | 0.00 | 48 | 1011.4 |
| 20260509172357 | 26 | 84 | 3.2 | 11.3 | 0.00 | 0.00 | 0.00 | 48 | 1011.4 |
| 20260509171857 | 25 | 287 | 4.8 | 11.3 | 0.00 | 0.00 | 0.00 | 46 | 1011.4 |
| 20260509171357 | 25 | 167 | 0.0 | 11.3 | 0.00 | 0.00 | 0.00 | 48 | 1011.3 |
| 20260509170857 | 25 | 15 | 6.4 | 12.9 | 0.00 | 0.00 | 0.00 | 49 | 1011.4 |
| 20260509170357 | 25 | 24 | 6.4 | 12.9 | 0.00 | 0.00 | 0.00 | 50 | 1011.5 |
| 20260509165357 | 25 | 360 | 3.2 | 8.0 | 0.00 | 0.00 | 0.00 | 50 | 1011.4 |
| 20260509164857 | 25 | 102 | 3.2 | 9.7 | 0.00 | 0.00 | 0.00 | 51 | 1011.5 |
| 20260509164357 | 25 | 355 | 3.2 | 9.7 | 0.00 | 0.00 | 0.00 | 53 | 1011.5 |
| 20260509163856 | 26 | 205 | 0.0 | 9.7 | 0.00 | 0.00 | 0.00 | 55 | 1011.6 |
| 20260509163356 | 26 | 238 | 1.6 | 9.7 | 0.00 | 0.00 | 0.00 | 58 | 1011.5 |
| 20260509162856 | 25 | 33 | 4.8 | 9.7 | 0.00 | 0.00 | 0.00 | 54 | 1011.4 |
| 20260509162357 | 25 | 176 | 0.0 | 9.7 | 0.00 | 0.00 | 0.00 | 58 | 1011.5 |
| 20260509161856 | 25 | 22 | 6.4 | 9.7 | 0.00 | 0.00 | 0.00 | 54 | 1011.5 |
| 20260509161356 | 25 | 5 | 6.4 | 8.0 | 0.00 | 0.00 | 0.00 | 51 | 1011.4 |
| 20260509160856 | 25 | 304 | 1.6 | 9.7 | 0.00 | 0.00 | 0.00 | 57 | 1011.3 |
| 20260509160356 | 25 | 301 | 4.8 | 9.7 | 0.00 | 0.00 | 0.00 | 56 | 1011.2 |
| 20260509155856 | 25 | 246 | 0.0 | 9.7 | 0.00 | 0.00 | 0.00 | 56 | 1011.3 |
| 20260509155356 | 25 | 311 | 3.2 | 8.0 | 0.00 | 0.00 | 0.00 | 56 | 1011.2 |
| 20260509154856 | 24 | 279 | 3.2 | 11.3 | 0.00 | 0.00 | 0.00 | 61 | 1011.1 |
| 20260509154356 | 24 | 42 | 6.4 | 11.3 | 0.00 | 0.00 | 0.00 | 59 | 1011.1 |
| 20260509153356 | 23 | 306 | 3.2 | 8.0 | 0.00 | 0.00 | 0.00 | 60 | 1011.0 |
| 20260509152856 | 23 | 45 | 4.8 | 9.7 | 0.00 | 0.00 | 0.00 | 60 | 1011.0 |
| 20260509152356 | 24 | 37 | 1.6 | 9.7 | 0.00 | 0.00 | 0.00 | 60 | 1010.9 |
| 20260509151856 | 24 | 235 | 0.0 | 9.7 | 0.00 | 0.00 | 0.00 | 60 | 1011.0 |
| 20260509150856 | 24 | 239 | 1.6 | 9.7 | 0.00 | 0.00 | 0.00 | 63 | 1011.0 |
| 20260509145856 | 23 | 300 | 1.6 | 11.3 | 0.00 | 0.00 | 0.00 | 65 | 1011.1 |
| 20260509145356 | 23 | 63 | 1.6 | 11.3 | 0.00 | 0.00 | 0.00 | 66 | 1011.1 |
| 20260509144856 | 23 | 225 | 4.8 | 6.4 | 0.00 | 0.00 | 0.00 | 68 | 1011.1 |
| 20260509144356 | 22 | 345 | 1.6 | 8.0 | 0.00 | 0.00 | 0.00 | 65 | 1011.1 |
| 20260509143856 | 22 | 255 | 1.6 | 9.7 | 0.00 | 0.00 | 0.00 | 67 | 1011.2 |
| 20260509143356 | 22 | 308 | 0.0 | 9.7 | 0.00 | 0.00 | 0.00 | 66 | 1011.1 |
| 20260509142856 | 23 | 281 | 3.2 | 9.7 | 0.00 | 0.00 | 0.00 | 70 | 1011.1 |